Terug naar catalogus

METEOR 1-26

ActiefWeerPO
NORAD 9481·PAYLOAD·🇷🇺 Russia

Gelanceerd Oct 15, 1976 vanaf Plesetsk Cosmodrome

Loading…

Volgende Passages (komende 24 uur)

TLE

VersSource: Space-Track

Epoch: Sep 14, 2026, 13:43 UTC

1 09481U 76102A   26257.57187398  .00000168  00000-0  87149-4 0  9996
2 09481  81.2182 317.1134 0023265  18.3434 341.8570 14.10369803566276

Volg METEOR 1-26 in realtime met AllMySat

Download on the App Store